EW1298 Weather Reports


time (UTC)temp
C
wind
direction
speed
KPH
gust
KPH
rain 1hr
cm
rain 24hr
cm
rain mn
cm
humidity
%
barometer
mb
20260906191502 23 31 6.4 11.3 0.00 0.00 0.00 71 1019.0
20260906190106 22 52 8.0 12.9 0.00 0.00 0.00 69 1019.1
20260906184626 23 68 9.7 14.5 0.00 0.00 0.00 72 1019.1
20260906183059 22 9 4.8 11.3 0.00 0.00 0.00 74 1019.3
20260906181559 22 68 8.0 11.3 0.00 0.00 0.00 77 1019.4
20260906180058 22 76 8.0 14.5 0.00 0.00 0.00 77 1019.5
20260906174558 23 30 8.0 14.5 0.00 0.00 0.00 77 1019.4
20260906173101 22 32 8.0 11.3 0.00 0.00 0.00 77 1019.5
20260906171559 22 17 6.4 11.3 0.00 0.00 0.00 75 1019.6
20260906164556 22 67 6.4 12.9 0.00 0.00 0.00 73 1019.5
20260906163055 23 40 6.4 11.3 0.00 0.00 0.00 70 1019.7
20260906161554 23 47 4.8 11.3 0.00 0.00 0.00 70 1019.6
20260906160053 23 46 8.0 11.3 0.00 0.00 0.00 72 1019.7
20260906154550 23 71 3.2 8.0 0.00 0.00 0.00 71 1019.7
20260906153047 22 51 3.2 11.3 0.00 0.00 0.00 73 1019.7
20260906151551 22 113 1.6 6.4 0.00 0.00 0.00 71 1019.9
20260906150045 22 120 1.6 6.4 0.00 0.00 0.00 71 1020.0
20260906144547 22 113 3.2 6.4 0.00 0.00 0.00 71 1019.9
20260906143043 22 103 1.6 4.8 0.00 0.00 0.00 71 1019.8
20260906141542 21 103 0.0 8.0 0.00 0.00 0.00 71 1019.9
20260906140049 22 121 3.2 6.4 0.00 0.00 0.00 70 1019.8
20260906134541 22 122 1.6 4.8 0.00 0.00 0.00 72 1019.8
20260906133041 20 236 1.6 4.8 0.00 0.00 0.00 72 1019.7
20260906131531 19 237 0.0 1.6 0.00 0.00 0.00 73 1019.7
20260906130028 18 237 0.0 3.2 0.00 0.00 0.00 75 1019.8
20260906124530 17 237 0.0 0.0 0.00 0.00 0.00 78 1019.8
20260906123031 16 237 0.0 3.2 0.00 0.00 0.00 81 1019.7
20260906121518 15 237 0.0 0.0 0.00 0.00 0.00 83 1019.8
20260906120017 15 237 0.0 3.2 0.00 0.00 0.00 84 1019.6
20260906114519 14 237 0.0 1.6 0.00 0.00 0.00 84 1019.5
20260906113015 14 247 0.0 4.8 0.00 0.00 0.00 83 1019.4
20260906111511 14 246 3.2 6.4 0.00 0.00 0.00 84 1019.1
20260906110011 14 248 0.0 1.6 0.00 0.00 0.00 83 1019.0
20260906104511 14 248 0.0 1.6 0.00 0.03 0.00 84 1019.0
20260906103022 14 248 0.0 3.2 0.00 0.03 0.00 83 1019.0
20260906101508 14 248 0.0 4.8 0.00 0.03 0.00 83 1019.1
20260906100021 15 234 0.0 3.2 0.00 0.03 0.00 83 1018.9
20260906094506 15 234 0.0 4.8 0.00 0.03 0.00 83 1019.0
20260906093004 15 186 1.6 6.4 0.00 0.03 0.00 83 1019.0
20260906091504 15 234 0.0 4.8 0.00 0.03 0.00 83 1019.0
20260906090003 15 241 0.0 3.2 0.00 0.03 0.00 83 1018.9
20260906084503 15 240 1.6 4.8 0.00 0.03 0.00 84 1018.9
20260906083102 15 234 0.0 1.6 0.00 0.03 0.00 85 1018.8
20260906081600 15 234 0.0 1.6 0.00 0.03 0.00 85 1018.6
20260906080100 15 234 0.0 3.2 0.00 0.03 0.00 84 1018.5
20260906074559 15 238 0.0 0.0 0.00 0.03 0.00 85 1018.8
20260906073059 15 238 0.0 0.0 0.00 0.03 0.00 86 1018.7
20260906071557 15 238 0.0 0.0 0.00 0.03 0.00 85 1018.6
20260906070056 15 238 0.0 0.0 0.00 0.03 0.00 86 1018.6
20260906064557 15 238 0.0 0.0 0.00 0.03 0.00 87 1018.5
20260906063053 15 238 0.0 0.0 0.00 0.03 0.00 87 1018.4
20260906061551 15 238 0.0 3.2 0.00 0.03 0.00 87 1018.5
20260906060050 15 238 0.0 0.0 0.00 0.03 0.00 87 1018.2
20260906054549 15 238 0.0 0.0 0.00 0.03 0.00 88 1018.1
20260906053048 15 238 0.0 0.0 0.00 0.03 0.00 89 1018.1
20260906051546 15 238 0.0 0.0 0.00 0.03 0.00 89 1017.9
20260906050046 15 238 0.0 0.0 0.00 0.03 0.00 90 1017.8
20260906044545 15 238 0.0 0.0 0.00 0.03 0.00 90 1017.8
20260906043043 15 238 0.0 0.0 0.00 0.03 0.00 90 1018.0
20260906041542 15 238 0.0 0.0 0.00 0.03 0.00 91 1017.7
20260906040039 16 238 0.0 0.0 0.00 0.03 0.00 91 1017.5
20260906034538 16 238 0.0 0.0 0.00 0.03 0.03 92 1017.4
20260906033038 16 238 0.0 0.0 0.00 0.03 0.03 92 1017.4
20260906031540 16 238 0.0 0.0 0.00 0.03 0.03 93 1017.5
20260906030037 16 238 0.0 0.0 0.00 0.03 0.03 93 1017.4
20260906024539 16 238 0.0 0.0 0.00 0.03 0.03 94 1017.3
20260906023042 16 238 0.0 0.0 0.00 0.03 0.03 94 1017.3
20260906021542 17 238 0.0 0.0 0.00 0.03 0.03 94 1017.2
20260906020035 17 81 0.0 3.2 0.00 0.03 0.03 94 1017.3
20260906014541 17 81 0.0 3.2 0.00 0.03 0.03 93 1017.2
20260906013041 17 81 0.0 1.6 0.00 0.03 0.03 93 1017.2
20260906011535 17 81 0.0 0.0 0.00 0.03 0.03 93 1017.3
20260906010033 17 81 0.0 0.0 0.00 0.03 0.03 93 1017.2
20260906004534 17 81 0.0 0.0 0.00 0.03 0.03 92 1017.2
20260906003032 18 81 0.0 0.0 0.00 0.03 0.03 91 1017.2
20260906001531 18 81 0.0 0.0 0.00 0.03 0.03 91 1017.3
20260906000031 18 81 0.0 4.8 0.00 0.03 0.03 90 1017.1
20260905234531 18 43 4.8 8.0 0.00 0.03 0.03 91 1017.1
20260905233030 18 5 3.2 4.8 0.00 0.03 0.03 90 1017.4
20260905231530 18 36 3.2 8.0 0.00 0.03 0.03 89 1017.3
20260905230029 19 5 4.8 8.0 0.00 0.03 0.03 89 1017.4
20260905224531 19 19 3.2 8.0 0.00 0.03 0.03 88 1017.3
20260905223029 20 43 4.8 9.7 0.00 0.03 0.03 88 1017.2
20260905221528 20 5 4.8 12.9 0.00 0.03 0.03 86 1017.3
20260905220027 20 9 9.7 12.9 0.00 0.03 0.03 85 1017.1
20260905214527 20 42 8.0 11.3 0.00 0.03 0.03 83 1017.2
20260905213026 21 28 6.4 12.9 0.00 0.03 0.03 83 1017.1
20260905211526 21 61 4.8 12.9 0.00 0.03 0.03 82 1016.9
20260905210027 22 5 6.4 12.9 0.00 0.03 0.03 79 1016.8
20260905204526 22 75 6.4 16.1 0.00 0.03 0.03 77 1016.6
20260905203025 23 19 4.8 12.9 0.00 0.03 0.03 75 1017.0
20260905201525 22 51 6.4 14.5 0.00 0.03 0.03 78 1017.1
20260905200032 23 360 9.7 16.1 0.00 0.03 0.03 78 1017.1
20260905194524 23 355 9.7 14.5 0.00 0.03 0.03 77 1017.0
20260905193026 23 33 9.7 16.1 0.00 0.03 0.03 78 1017.2